| time (UTC) | temp F | wind direction | speed knots | gust knots | rain 1hr in | rain 24hr in | rain mn in | humidity % | barometer mb |
| 20260509050031 | 48 | 187 | 3.5 | 0.0 | 0.00 | 0.00 | 0.00 | 44 | 1009.3 |
| 20260509044523 | 49 | 183 | 4.3 | 0.0 | 0.00 | 0.00 | 0.00 | 44 | 1009.4 |
| 20260509043015 | 49 | 186 | 4.3 | 0.0 | 0.00 | 0.00 | 0.00 | 45 | 1009.6 |
| 20260509041517 | 49 | 185 | 6.1 | 0.0 | 0.00 | 0.00 | 0.00 | 50 | 1009.7 |
| 20260509040100 | 49 | 188 | 4.3 | 0.0 | 0.00 | 0.00 | 0.00 | 49 | 1009.7 |
| 20260509034551 | 48 | 184 | 1.7 | 0.0 | 0.00 | 0.00 | 0.04 | 40 | 1009.7 |
| 20260509033042 | 48 | 182 | 2.6 | 0.0 | 0.00 | 0.00 | 0.04 | 40 | 1009.8 |
| 20260509031534 | 49 | 181 | 5.2 | 0.0 | 0.00 | 0.00 | 0.04 | 38 | 1009.7 |
| 20260509030024 | 49 | 167 | 4.3 | 0.0 | 0.00 | 0.00 | 0.04 | 35 | 1009.8 |
| 20260509024516 | 49 | 166 | 5.2 | 0.0 | 0.00 | 0.00 | 0.04 | 41 | 1009.8 |
| 20260509023007 | 49 | 144 | 5.2 | 0.0 | 0.00 | 0.00 | 0.04 | 27 | 1009.9 |
| 20260509021559 | 49 | 119 | 3.5 | 0.0 | 0.00 | 0.00 | 0.04 | 18 | 1009.9 |
| 20260509020052 | 49 | 39 | 1.7 | 0.0 | 0.00 | 0.00 | 0.04 | 26 | 1010.0 |
| 20260509014543 | 50 | 39 | 0.9 | 0.0 | 0.00 | 0.00 | 0.04 | 31 | 1009.9 |
| 20260509013035 | 50 | 39 | 1.7 | 0.0 | 0.00 | 0.00 | 0.04 | 41 | 1009.7 |
| 20260509011524 | 51 | 39 | 0.9 | 0.0 | 0.00 | 0.00 | 0.04 | 50 | 1009.5 |
| 20260509010114 | 51 | 38 | 0.0 | 0.0 | 0.00 | 0.00 | 0.04 | 55 | 1009.3 |
| 20260509004508 | 52 | 38 | 0.0 | 0.0 | 0.00 | 0.00 | 0.04 | 54 | 1009.1 |
| 20260509003103 | 52 | 38 | 0.0 | 0.0 | 0.00 | 0.00 | 0.04 | 51 | 1009.0 |
| 20260509001548 | 52 | 38 | 0.0 | 0.0 | 0.00 | 0.00 | 0.04 | 48 | 1008.9 |
| 20260509000045 | 52 | 38 | 0.9 | 0.0 | 0.00 | 0.00 | 0.04 | 50 | 1008.9 |
| 20260508234532 | 52 | 38 | 0.9 | 0.0 | 0.00 | 0.00 | 0.04 | 52 | 1008.9 |
| 20260508233023 | 52 | 38 | 0.9 | 0.0 | 0.00 | 0.00 | 0.04 | 52 | 1009.0 |
| 20260508231514 | 53 | 38 | 0.9 | 0.0 | 0.00 | 0.00 | 0.04 | 51 | 1008.9 |
| 20260508230005 | 53 | 38 | 1.7 | 0.0 | 0.00 | 0.00 | 0.04 | 52 | 1008.8 |
| 20260508224603 | 53 | 38 | 1.7 | 0.0 | 0.00 | 0.00 | 0.04 | 52 | 1008.8 |
| 20260508223047 | 53 | 38 | 1.7 | 0.0 | 0.00 | 0.00 | 0.04 | 53 | 1008.9 |
| 20260508221538 | 53 | 38 | 0.9 | 0.0 | 0.00 | 0.00 | 0.04 | 51 | 1009.0 |
| 20260508220103 | 53 | 38 | 0.9 | 0.0 | 0.00 | 0.00 | 0.04 | 52 | 1009.1 |
| 20260508214622 | 53 | 39 | 0.0 | 0.0 | 0.00 | 0.00 | 0.04 | 49 | 1009.1 |
| 20260508211503 | 50 | 39 | 2.6 | 0.0 | 0.00 | 0.00 | 0.04 | 35 | 1009.3 |
| 20260508210157 | 50 | 40 | 2.6 | 0.0 | 0.00 | 0.00 | 0.04 | 36 | 1009.4 |
| 20260508204546 | 49 | 36 | 3.5 | 0.0 | 0.00 | 0.00 | 0.04 | 29 | 1009.6 |
| 20260508203046 | 48 | 32 | 2.6 | 0.0 | 0.00 | 0.00 | 0.04 | 17 | 1009.8 |
| 20260508201545 | 48 | 31 | 3.5 | 0.0 | 0.00 | 0.00 | 0.04 | 6 | 1010.0 |
| 20260508200037 | 49 | 21 | 2.6 | 0.0 | 0.00 | 0.00 | 0.04 | 6 | 1010.1 |
| 20260508194534 | 49 | 11 | 2.6 | 0.0 | 0.00 | 0.00 | 0.04 | 100 | 1010.3 |
| 20260508193123 | 49 | 350 | 2.6 | 0.0 | 0.00 | 0.00 | 0.04 | 100 | 1010.5 |
| 20260508191517 | 48 | 13 | 3.5 | 0.0 | 0.00 | 0.00 | 0.04 | 100 | 1010.5 |
| 20260508190109 | 48 | 22 | 4.3 | 0.0 | 0.00 | 0.00 | 0.04 | 100 | 1010.5 |
| 20260508184554 | 48 | 5 | 4.3 | 0.0 | 0.00 | 0.00 | 0.04 | 100 | 1010.5 |
| 20260508183047 | 47 | 5 | 5.2 | 0.0 | 0.00 | 0.00 | 0.04 | 100 | 1010.5 |
| 20260508181548 | 46 | 360 | 6.1 | 0.0 | 0.00 | 0.00 | 0.04 | 100 | 1010.6 |
| 20260508180027 | 47 | 351 | 6.1 | 0.0 | 0.00 | 0.00 | 0.04 | 4 | 1010.7 |
| 20260508174529 | 49 | 348 | 4.3 | 0.0 | 0.00 | 0.00 | 0.04 | 13 | 1010.7 |
| 20260508173008 | 48 | 344 | 3.5 | 0.0 | 0.00 | 0.00 | 0.04 | 100 | 1010.8 |
| 20260508171600 | 47 | 348 | 4.3 | 0.0 | 0.00 | 0.00 | 0.04 | 100 | 1011.1 |
| 20260508170153 | 47 | 331 | 3.5 | 0.0 | 0.00 | 0.00 | 0.04 | 100 | 1011.1 |
| 20260508164645 | 47 | 339 | 3.5 | 0.0 | 0.00 | 0.00 | 0.04 | 100 | 1011.2 |
| 20260508163039 | 48 | 327 | 3.5 | 0.0 | 0.00 | 0.00 | 0.03 | 100 | 1011.2 |
| 20260508161627 | 48 | 327 | 4.3 | 0.0 | 0.00 | 0.00 | 0.03 | 100 | 1011.2 |
| 20260508160118 | 48 | 319 | 4.3 | 0.0 | 0.00 | 0.00 | 0.03 | 100 | 1011.3 |
| 20260508154508 | 48 | 319 | 4.3 | 0.0 | 0.00 | 0.00 | 0.03 | 100 | 1011.1 |
| 20260508153200 | 48 | 305 | 3.5 | 0.0 | 0.00 | 0.00 | 0.03 | 3 | 1011.0 |
| 20260508151550 | 48 | 301 | 3.5 | 0.0 | 0.00 | 0.00 | 0.03 | 16 | 1010.9 |
| 20260508150041 | 47 | 295 | 2.6 | 0.0 | 0.00 | 0.00 | 0.03 | 24 | 1010.8 |
| 20260508144531 | 47 | 295 | 1.7 | 0.0 | 0.00 | 0.00 | 0.03 | 39 | 1010.9 |
| 20260508143025 | 48 | 295 | 2.6 | 0.0 | 0.00 | 0.00 | 0.03 | 27 | 1011.0 |
| 20260508141513 | 46 | 295 | 2.6 | 0.0 | 0.00 | 0.00 | 0.03 | 21 | 1011.1 |
| 20260508140105 | 45 | 295 | 2.6 | 0.0 | 0.00 | 0.00 | 0.03 | 100 | 1011.2 |
| 20260508134613 | 45 | 300 | 4.3 | 0.0 | 0.00 | 0.00 | 0.03 | 100 | 1011.2 |
| 20260508133046 | 45 | 297 | 3.5 | 0.0 | 0.00 | 0.00 | 0.03 | 100 | 1011.2 |
| 20260508131538 | 45 | 298 | 2.6 | 0.0 | 0.00 | 0.00 | 0.03 | 100 | 1010.8 |
| 20260508130129 | 45 | 298 | 2.6 | 0.0 | 0.00 | 0.00 | 0.03 | 100 | 1010.8 |
| 20260508124619 | 45 | 298 | 3.5 | 0.0 | 0.00 | 0.00 | 0.03 | 100 | 1010.8 |
| 20260508123011 | 45 | 288 | 2.6 | 0.0 | 0.00 | 0.00 | 0.03 | 100 | 1010.7 |
| 20260508121502 | 45 | 266 | 0.9 | 0.0 | 0.00 | 0.00 | 0.03 | 100 | 1010.4 |
| 20260508120154 | 44 | 263 | 0.0 | 0.0 | 0.00 | 0.00 | 0.03 | 100 | 1010.2 |
| 20260508114646 | 44 | 263 | 0.0 | 0.0 | 0.00 | 0.00 | 0.03 | 100 | 1010.1 |
| 20260508111528 | 43 | 263 | 1.7 | 0.0 | 0.00 | 0.00 | 0.03 | 100 | 1010.0 |
| 20260508110120 | 43 | 263 | 1.7 | 0.0 | 0.00 | 0.00 | 0.03 | 100 | 1010.0 |
| 20260508104512 | 43 | 263 | 0.9 | 0.0 | 0.00 | 0.00 | 0.03 | 100 | 1010.1 |
| 20260508103059 | 43 | 263 | 1.7 | 0.0 | 0.00 | 0.00 | 0.03 | 100 | 1010.1 |
| 20260508100042 | 42 | 265 | 1.7 | 0.0 | 0.00 | 0.00 | 0.03 | 100 | 1010.2 |
| 20260508094539 | 42 | 262 | 1.7 | 0.0 | 0.00 | 0.00 | 0.03 | 100 | 1010.2 |
| 20260508093125 | 42 | 265 | 1.7 | 0.0 | 0.00 | 0.00 | 0.03 | 100 | 1010.2 |
| 20260508091514 | 42 | 265 | 1.7 | 0.0 | 0.00 | 0.00 | 0.03 | 100 | 1010.0 |
| 20260508090106 | 43 | 265 | 1.7 | 0.0 | 0.00 | 0.00 | 0.03 | 100 | 1010.0 |
| 20260508083149 | 43 | 265 | 1.7 | 0.0 | 0.00 | 0.00 | 0.03 | 100 | 1010.0 |
| 20260508081559 | 43 | 265 | 1.7 | 0.0 | 0.00 | 0.00 | 0.03 | 100 | 1009.8 |
| 20260508080030 | 43 | 272 | 1.7 | 0.0 | 0.00 | 0.00 | 0.03 | 100 | 1009.7 |
| 20260508074521 | 44 | 272 | 0.9 | 0.0 | 0.00 | 0.00 | 0.03 | 100 | 1009.7 |
| 20260508073112 | 44 | 271 | 1.7 | 0.0 | 0.00 | 0.00 | 0.03 | 100 | 1009.7 |
| 20260508071502 | 44 | 263 | 0.9 | 0.0 | 0.00 | 0.00 | 0.03 | 100 | 1009.8 |
| 20260508070055 | 44 | 263 | 1.7 | 0.0 | 0.00 | 0.00 | 0.03 | 100 | 1009.8 |
| 20260508064544 | 44 | 268 | 1.7 | 0.0 | 0.00 | 0.00 | 0.03 | 100 | 1009.9 |
| 20260508063046 | 44 | 269 | 0.9 | 0.0 | 0.00 | 0.00 | 0.03 | 100 | 1010.0 |
| 20260508061525 | 44 | 269 | 1.7 | 0.0 | 0.00 | 0.00 | 0.03 | 100 | 1010.1 |
| 20260508060016 | 44 | 259 | 1.7 | 0.0 | 0.00 | 0.00 | 0.03 | 100 | 1010.0 |
| 20260508054608 | 44 | 278 | 1.7 | 0.0 | 0.00 | 0.00 | 0.03 | 100 | 1010.1 |
| 20260508053059 | 45 | 278 | 1.7 | 0.0 | 0.00 | 0.00 | 0.03 | 100 | 1010.0 |
| 20260508051549 | 45 | 261 | 1.7 | 0.0 | 0.00 | 0.00 | 0.03 | 100 | 1010.0 |